Location: Homewood
(41.1836°S, 175.9581°E)
Time: 10:53:54
(UTC+00:00)

Cosmos 1656 Rocket - Pass Details

Date: 18 April 2024
Orbit: 796 x 844 km, 71.1° (Epoch: 24 May)

Event Time Altitude Azimuth Distance (km) Brightness Sun altitude
Rises 18:16:51 0° 344° (NNW) 3,331 6.7 -7.1°
Reaches altitude 10° 18:19:14 10° 345° (NNW) 2,414 6.0 -6.6°
Maximum altitude 18:24:45 74° 69° (ENE) 870 4.0 -5.6°
Drops below altitude 10° 18:30:26 10° 153° (SSE) 2,476 6.4 -4.6°
Sets 18:32:55 0° 154° (SSE) 3,423 7.1 -4.1°
